Time,TemperatureF,DewpointF,PressureIn,WindDirection,WindDirectionDegrees,WindSpeedMPH,WindSpeedGustMPH,Humidity,HourlyPrecipIn,Conditions,Clouds,dailyrainin,SoftwareType,DateUTC
2013-10-18 00:13:00,79.0,69.2,28.39,West,270,0.0,-999.0,72,-99.99,,,0.00,Acu-Link.com,2013-10-18 10:13:00,
2013-10-18 00:28:00,78.8,69.0,28.40,West,270,0.0,-999.0,72,-99.99,,,0.00,Acu-Link.com,2013-10-18 10:28:00,
2013-10-18 00:44:00,78.6,68.8,28.38,West,270,0.0,-999.0,72,-99.99,,,0.00,Acu-Link.com,2013-10-18 10:44:00,
2013-10-18 00:59:00,78.6,68.8,28.36,West,270,0.0,-999.0,72,-99.99,,,0.00,Acu-Link.com,2013-10-18 10:59:00,
2013-10-18 01:15:00,78.4,68.6,28.36,West,270,0.0,-999.0,72,-99.99,,,0.00,Acu-Link.com,2013-10-18 11:15:00,
2013-10-18 01:30:00,78.3,68.5,28.38,West,270,0.0,-999.0,72,-99.99,,,0.00,Acu-Link.com,2013-10-18 11:30:00,
2013-10-18 01:46:00,78.3,68.5,28.36,West,270,0.0,-999.0,72,-99.99,,,0.00,Acu-Link.com,2013-10-18 11:46:00,
2013-10-18 02:01:00,78.1,68.3,28.36,West,270,0.0,-999.0,72,-99.99,,,0.00,Acu-Link.com,2013-10-18 12:01:00,
2013-10-18 02:17:00,77.9,68.1,28.35,West,270,0.0,-999.0,72,-99.99,,,0.00,Acu-Link.com,2013-10-18 12:17:00,
2013-10-18 02:33:00,77.9,68.1,28.37,West,270,0.0,-999.0,72,-99.99,,,0.00,Acu-Link.com,2013-10-18 12:33:00,
2013-10-18 02:49:00,77.7,67.9,28.35,West,270,0.0,-999.0,72,-99.99,,,0.00,Acu-Link.com,2013-10-18 12:49:00,
2013-10-18 03:04:00,77.7,67.9,28.35,West,270,0.0,-999.0,72,-99.99,,,0.00,Acu-Link.com,2013-10-18 13:04:00,
2013-10-18 03:20:00,77.7,67.9,28.37,West,270,0.0,-999.0,72,-99.99,,,0.00,Acu-Link.com,2013-10-18 13:20:00,
2013-10-18 03:36:00,77.5,68.1,28.36,West,270,0.0,-999.0,73,-99.99,,,0.00,Acu-Link.com,2013-10-18 13:36:00,
2013-10-18 03:51:00,77.5,68.1,28.37,West,270,0.0,-999.0,73,-99.99,,,0.00,Acu-Link.com,2013-10-18 13:51:00,
2013-10-18 04:07:00,77.5,68.1,28.36,West,270,0.0,-999.0,73,-99.99,,,0.00,Acu-Link.com,2013-10-18 14:07:00,
2013-10-18 04:22:00,77.4,68.0,28.35,West,270,0.0,-999.0,73,-99.99,,,0.00,Acu-Link.com,2013-10-18 14:22:00,
2013-10-18 04:37:00,77.4,68.0,28.36,West,270,0.0,-999.0,73,-99.99,,,0.00,Acu-Link.com,2013-10-18 14:37:00,
2013-10-18 04:52:00,77.4,68.4,28.34,West,270,0.0,-999.0,74,-99.99,,,0.00,Acu-Link.com,2013-10-18 14:52:00,
2013-10-18 05:08:00,77.2,68.3,28.35,West,270,0.0,-999.0,74,-99.99,,,0.00,Acu-Link.com,2013-10-18 15:08:00,
2013-10-18 05:21:00,-999.0,-99.9,-100.00,North,-999,-999.0,-999.0,-999,-99.99,,,-99.99,Acu-Link.com,2013-10-18 15:21:00,
2013-10-18 05:38:00,77.2,68.3,28.35,West,270,0.0,-999.0,74,-99.99,,,0.00,Acu-Link.com,2013-10-18 15:38:00,
2013-10-18 05:55:00,77.2,68.3,28.36,West,270,0.0,-999.0,74,-99.99,,,0.00,Acu-Link.com,2013-10-18 15:55:00,
2013-10-18 06:11:00,77.0,68.1,28.36,West,270,0.0,-999.0,74,-99.99,,,0.00,Acu-Link.com,2013-10-18 16:11:00,
2013-10-18 06:26:00,77.0,68.5,28.34,West,270,0.0,-999.0,75,-99.99,,,0.00,Acu-Link.com,2013-10-18 16:26:00,
2013-10-18 06:42:00,77.0,68.5,28.36,West,270,0.0,-999.0,75,-99.99,,,0.00,Acu-Link.com,2013-10-18 16:42:00,
2013-10-18 06:58:00,76.8,68.3,28.36,West,270,0.0,-999.0,75,-99.99,,,0.00,Acu-Link.com,2013-10-18 16:58:00,
2013-10-18 07:13:00,76.8,68.3,28.36,West,270,0.0,-999.0,75,-99.99,,,0.00,Acu-Link.com,2013-10-18 17:13:00,
2013-10-18 07:30:00,76.8,68.3,28.38,West,270,0.0,-999.0,75,-99.99,,,0.00,Acu-Link.com,2013-10-18 17:30:00,
2013-10-18 07:45:00,76.8,68.3,28.37,West,270,0.0,-999.0,75,-99.99,,,0.00,Acu-Link.com,2013-10-18 17:45:00,
2013-10-18 08:00:00,76.8,68.3,28.37,West,270,0.0,-999.0,75,-99.99,,,0.00,Acu-Link.com,2013-10-18 18:00:00,
2013-10-18 08:16:00,76.8,68.6,28.38,West,270,0.0,-999.0,76,-99.99,,,0.00,Acu-Link.com,2013-10-18 18:16:00,
2013-10-18 08:31:00,76.8,68.6,28.38,West,270,0.0,-999.0,76,-99.99,,,0.00,Acu-Link.com,2013-10-18 18:31:00,
2013-10-18 08:46:00,76.8,68.6,28.38,West,270,0.0,-999.0,76,-99.99,,,0.00,Acu-Link.com,2013-10-18 18:46:00,
2013-10-18 09:02:00,76.8,68.6,28.38,West,270,0.0,-999.0,76,-99.99,,,0.00,Acu-Link.com,2013-10-18 19:02:00,
2013-10-18 09:17:00,76.8,68.3,28.39,West,270,0.0,-999.0,75,-99.99,,,0.00,Acu-Link.com,2013-10-18 19:17:00,
2013-10-18 09:32:00,76.8,68.3,28.38,West,270,0.0,-999.0,75,-99.99,,,0.00,Acu-Link.com,2013-10-18 19:32:00,
2013-10-18 09:47:00,76.8,67.9,28.39,West,270,0.0,-999.0,74,-99.99,,,0.00,Acu-Link.com,2013-10-18 19:47:00,
2013-10-18 10:02:00,76.8,67.5,28.38,West,270,0.0,-999.0,73,-99.99,,,0.00,Acu-Link.com,2013-10-18 20:02:00,
2013-10-18 10:18:00,77.0,67.7,28.38,West,270,0.0,-999.0,73,-99.99,,,0.00,Acu-Link.com,2013-10-18 20:18:00,
2013-10-18 10:33:00,77.2,67.9,28.38,West,270,0.0,-999.0,73,-99.99,,,0.00,Acu-Link.com,2013-10-18 20:33:00,
2013-10-18 10:48:00,77.2,67.5,28.38,West,270,0.0,-999.0,72,-99.99,,,0.00,Acu-Link.com,2013-10-18 20:48:00,
2013-10-18 11:03:00,77.4,67.6,28.35,West,270,0.0,-999.0,72,-99.99,,,0.00,Acu-Link.com,2013-10-18 21:03:00,
2013-10-18 11:19:00,77.7,67.9,28.36,West,270,0.0,-999.0,72,-99.99,,,0.00,Acu-Link.com,2013-10-18 21:19:00,
2013-10-18 11:34:00,77.9,68.1,28.35,West,270,0.0,-999.0,72,-99.99,,,0.00,Acu-Link.com,2013-10-18 21:34:00,
2013-10-18 11:49:00,78.1,68.3,28.34,West,270,0.0,-999.0,72,-99.99,,,0.00,Acu-Link.com,2013-10-18 21:49:00,
2013-10-18 12:04:00,78.4,69.4,28.35,West,270,0.0,-999.0,74,-99.99,,,0.00,Acu-Link.com,2013-10-18 22:04:00,
2013-10-18 14:22:00,79.2,69.8,28.27,West,270,0.0,-999.0,73,-99.99,,,0.00,Acu-Link.com,2013-10-19 00:22:00,
2013-10-18 14:51:00,79.3,69.9,28.29,West,270,0.0,-999.0,73,-99.99,,,0.00,Acu-Link.com,2013-10-19 00:51:00,
2013-10-18 15:06:00,79.9,69.6,28.26,West,270,0.0,-999.0,71,-99.99,,,0.00,Acu-Link.com,2013-10-19 01:06:00,
2013-10-18 15:21:00,80.6,69.9,28.25,West,270,0.0,-999.0,70,-99.99,,,0.00,Acu-Link.com,2013-10-19 01:21:00,
2013-10-18 15:37:00,81.0,70.3,28.26,West,270,0.0,-999.0,70,-99.99,,,0.00,Acu-Link.com,2013-10-19 01:37:00,
2013-10-18 15:52:00,81.5,70.3,28.27,West,270,0.0,-999.0,69,-99.99,,,0.00,Acu-Link.com,2013-10-19 01:52:00,
2013-10-18 16:07:00,81.9,70.3,28.25,West,270,0.0,-999.0,68,-99.99,,,0.00,Acu-Link.com,2013-10-19 02:07:00,
2013-10-18 16:22:00,82.0,70.4,28.26,West,270,0.0,-999.0,68,-99.99,,,0.00,Acu-Link.com,2013-10-19 02:22:00,
2013-10-18 16:38:00,82.2,70.6,28.27,West,270,0.0,-999.0,68,-99.99,,,0.00,Acu-Link.com,2013-10-19 02:38:00,
2013-10-18 16:53:00,82.4,70.3,28.27,West,270,0.0,-999.0,67,-99.99,,,0.00,Acu-Link.com,2013-10-19 02:53:00,
2013-10-18 17:08:00,82.6,70.5,28.24,West,270,0.0,-999.0,67,-99.99,,,0.00,Acu-Link.com,2013-10-19 03:08:00,
2013-10-18 17:23:00,82.8,70.7,28.28,West,270,0.0,-999.0,67,-99.99,,,0.00,Acu-Link.com,2013-10-19 03:23:00,
2013-10-18 17:38:00,82.8,70.7,28.25,West,270,0.0,-999.0,67,-99.99,,,0.00,Acu-Link.com,2013-10-19 03:38:00,
2013-10-18 17:56:00,82.8,71.1,28.29,West,270,0.0,-999.0,68,-99.99,,,0.00,Acu-Link.com,2013-10-19 03:56:00,
2013-10-18 18:11:00,82.4,70.8,28.28,West,270,0.0,-999.0,68,-99.99,,,0.00,Acu-Link.com,2013-10-19 04:11:00,
2013-10-18 18:26:00,82.0,70.8,28.29,West,270,0.0,-999.0,69,-99.99,,,0.00,Acu-Link.com,2013-10-19 04:26:00,
2013-10-18 18:41:00,81.7,70.5,28.30,West,270,0.0,-999.0,69,-99.99,,,0.00,Acu-Link.com,2013-10-19 04:41:00,
2013-10-18 18:57:00,81.3,70.1,28.30,West,270,0.0,-999.0,69,-99.99,,,0.00,Acu-Link.com,2013-10-19 04:57:00,
2013-10-18 19:12:00,81.0,69.8,28.31,West,270,0.0,-999.0,69,-99.99,,,0.00,Acu-Link.com,2013-10-19 05:12:00,
2013-10-18 19:27:00,80.6,69.9,28.30,West,270,0.0,-999.0,70,-99.99,,,0.00,Acu-Link.com,2013-10-19 05:27:00,
2013-10-18 19:42:00,80.2,69.5,28.31,West,270,0.0,-999.0,70,-99.99,,,0.00,Acu-Link.com,2013-10-19 05:42:00,
2013-10-18 19:59:00,79.9,69.2,28.32,West,270,0.0,-999.0,70,-99.99,,,0.00,Acu-Link.com,2013-10-19 05:59:00,
2013-10-18 20:15:00,79.5,68.8,28.32,West,270,0.0,-999.0,70,-99.99,,,0.00,Acu-Link.com,2013-10-19 06:15:00,
2013-10-18 20:31:00,79.3,68.6,28.34,West,270,0.0,-999.0,70,-99.99,,,0.00,Acu-Link.com,2013-10-19 06:31:00,
2013-10-18 20:46:00,79.2,68.6,28.33,West,270,0.0,-999.0,70,-99.99,,,0.00,Acu-Link.com,2013-10-19 06:46:00,